Weather History for Atwater, CA

Change the Weather History Date:

Friday, March 28, 2014

  Actual Average (KMCE) Record (KMCE)
Temperature  
Mean Temperature 58 °F 55 °F  
Max Temperature 75 °F 67 °F 80 °F (2009)
Min Temperature 42 °F 43 °F 33 °F (1999)
Degree Days  
Heating Degree Days 6    
Month to date heating degree days  
Since 1 July heating degree days  
Cooling Degree Days 0    
Month to date cooling degree days  
Year to date cooling degree days  
Growing Degree Days 8 (Base 50)    
Moisture  
Dew Point 49 °F    
Average Humidity 82    
Maximum Humidity 100    
Minimum Humidity 25    
Precipitation  
Precipitation 0.00 in 0.05 in 0.18 in (2005)
Month to date precipitation 1.91  
Year to date precipitation 6.86  
Since 1 July precipitation 10.68  
Snow  
Snow 0.00 in - - ()
Month to date snowfall  
Since 1 July snowfall  
Snow Depth -    
Sea Level Pressure  
Sea Level Pressure 30.14 in    
Wind  
Wind Speed 2 mph (West)    
Max Wind Speed 9 mph    
Max Gust Speed -    
Visibility 9 miles    
Events      
T = Trace of Precipitation, MM = Missing Value Source: NWS Daily Summary

Daily Weather History Graph

Daily Weather History Graph

Search for Another Location

Airport:

Trip Planner

Search our weather history database for the weather conditions in past years. The results will help you decide how hot, cold, wet, or windy it might be!

Date:

Astronomy

Mar. 28, 2014 Rise Set
Actual Time 6:53 AM PDT 7:21 PM PDT
Civil Twilight 6:27 AM PDT 7:47 PM PDT
Nautical Twilight 5:56 AM PDT 8:18 PM PDT
Astronomical Twilight 5:25 AM PDT 8:50 PM PDT
Moon 5:25 AM PDT (3/28) 5:26 PM PDT (3/28)
Length of Visible Light 13h 20m
Length of Day
12h 27m
Waning Crescent, 5% of the Moon is Illuminated
Mar 28
Waning Crescent
Mar 30
New
Apr 7
First Quarter
Apr 15
Full
Apr 22
Last Quarter

Hourly Weather History & Observations

Time (PDT) Temp. Dew Point Humidity Pressure Visibility Wind Dir Wind Speed Gust Speed Precip Events Conditions
12:15 AM 48.2 °F 48.2 °F 100% 30.14 in 10.0 mi Calm Calm - N/A   Clear
12:35 AM 48.2 °F 48.2 °F 100% 30.14 in 10.0 mi NW 6.9 mph - N/A   Clear
12:55 AM 50.0 °F 50.0 °F 100% 30.14 in 10.0 mi North 3.5 mph - N/A   Clear
1:15 AM 48.2 °F 48.2 °F 100% 30.14 in 10.0 mi Calm Calm - N/A   Clear
1:35 AM 48.2 °F 48.2 °F 100% 30.13 in 10.0 mi Calm Calm - N/A   Clear
1:55 AM 48.2 °F 48.2 °F 100% 30.13 in 10.0 mi Calm Calm - N/A   Clear
2:15 AM 46.4 °F 46.4 °F 100% 30.12 in 8.0 mi Calm Calm - N/A   Clear
2:35 AM 46.4 °F 46.4 °F 100% 30.12 in 9.0 mi Calm Calm - N/A   Clear
2:55 AM 46.4 °F 46.4 °F 100% 30.14 in 9.0 mi Calm Calm - N/A   Clear
3:15 AM 46.4 °F 46.4 °F 100% 30.14 in 10.0 mi North - - N/A   Clear
3:35 AM 48.2 °F 48.2 °F 100% 30.14 in 9.0 mi Calm Calm - N/A   Clear
3:55 AM 48.2 °F 48.2 °F 100% 30.14 in 10.0 mi Calm Calm - N/A   Clear
4:15 AM 48.2 °F 48.2 °F 100% 30.13 in 10.0 mi Calm Calm - N/A   Clear
4:35 AM 48.2 °F 48.2 °F 100% 30.14 in 9.0 mi Calm Calm - N/A   Clear
4:55 AM 48.2 °F 48.2 °F 100% 30.14 in 9.0 mi NW 3.5 mph - N/A   Clear
5:15 AM 48.2 °F 48.2 °F 100% 30.15 in 9.0 mi NNW 3.5 mph - N/A   Clear
5:35 AM 46.4 °F 46.4 °F 100% 30.15 in 7.0 mi Calm Calm - N/A   Clear
5:55 AM 44.6 °F 44.6 °F 100% 30.15 in 5.0 mi Calm Calm - N/A   Clear
6:45 AM 42.8 °F 42.8 °F 100% 30.16 in 6.0 mi Calm Calm - N/A   Haze
7:50 AM 44.6 °F 44.6 °F 100% 30.18 in 6.0 mi Calm Calm - N/A   Haze
8:45 AM 51.8 °F 51.8 °F 100% 30.19 in 6.0 mi Calm Calm - N/A   Haze
9:45 AM 59.0 °F 53.6 °F 82% 30.21 in 6.0 mi Calm Calm - N/A   Haze
10:45 AM 64.4 °F 46.4 °F 52% 30.22 in 6.0 mi Calm Calm - N/A   Haze
11:45 AM 66.2 °F 46.4 °F 49% 30.21 in 10.0 mi Calm Calm - N/A   Clear
12:45 PM 69.8 °F 46.4 °F 43% 30.20 in 10.0 mi Variable 5.8 mph - N/A   Clear
1:45 PM 71.6 °F 44.6 °F 38% 30.18 in 10.0 mi South 9.2 mph - N/A   Clear
2:45 PM 73.4 °F 41.0 °F 31% 30.15 in 10.0 mi South 9.2 mph - N/A   Clear
3:45 PM 73.4 °F 42.8 °F 33% 30.13 in 10.0 mi South 5.8 mph - N/A   Clear
4:45 PM 75.2 °F 37.4 °F 25% 30.11 in 10.0 mi SSE 8.1 mph - N/A   Clear
5:45 PM 73.4 °F 39.2 °F 29% 30.09 in 10.0 mi SE 6.9 mph - N/A   Clear
6:45 PM 66.2 °F 44.6 °F 46% 30.10 in 10.0 mi SSE 5.8 mph - N/A   Clear
7:45 PM 62.6 °F 51.8 °F 68% 30.10 in 10.0 mi South 5.8 mph - N/A   Clear
8:15 PM 60.8 °F 51.8 °F 72% 30.10 in 10.0 mi Calm Calm - N/A   Clear
8:35 PM 60.8 °F 53.6 °F 77% 30.11 in 10.0 mi Calm Calm - N/A   Clear
8:45 PM 60.8 °F 53.6 °F 77% 30.11 in 10.0 mi Calm Calm - N/A   Clear
8:55 PM 60.8 °F 55.4 °F 82% 30.11 in 10.0 mi Calm Calm - N/A   Clear
9:15 PM 57.2 °F 57.2 °F 100% 30.12 in 10.0 mi Calm Calm - N/A   Clear
9:35 PM 59.0 °F 57.2 °F 94% 30.13 in 10.0 mi Calm Calm - N/A   Clear
9:55 PM 57.2 °F 55.4 °F 94% 30.13 in 10.0 mi Calm Calm - N/A   Clear
10:15 PM 53.6 °F 53.6 °F 100% 30.13 in 10.0 mi WNW 6.9 mph - N/A   Clear
10:35 PM 60.8 °F 51.8 °F 72% 30.13 in 10.0 mi NW 9.2 mph - N/A   Clear
10:55 PM 60.8 °F 51.8 °F 72% 30.14 in 10.0 mi NW 9.2 mph - N/A   Clear
11:15 PM 57.2 °F 51.8 °F 82% 30.14 in 10.0 mi NW 6.9 mph - N/A   Clear
11:35 PM 57.2 °F 51.8 °F 82% 30.14 in 10.0 mi NW 5.8 mph - N/A   Clear
11:55 PM 55.4 °F 51.8 °F 88% 30.14 in 10.0 mi NNW 3.5 mph - N/A   Clear